When you browse on this site, cookies collect data to enhance your experience and personalize the content and advertising you see.
Visit our Privacy Policy to learn more. By continuing to use the site, you agree to this use of cookies and data.
  • In Czech Republic
  • List of Countries
  • For 7 days
  • Water Temperature
  • Satellite Maps
  • Weather Map
  • Weather Widgets
  • user-avatar
    Login

    Hourly Weather Santa Fe

    Today, 16 January, Wednesday

    Time Temperature Precipitation Wind Pressure Humidity
    00:00 +23°C° 0 mm 2 mps 756 mmHg 90%
    01:00 +22°C° 0 mm 1 mps 756 mmHg 92%
    02:00 +22°C° 0 mm 1 mps 756 mmHg 94%
    03:00 +22°C° 0 mm 1 mps 756 mmHg 94%
    04:00 +21°C° 0 mm 1 mps 756 mmHg 95%
    05:00 +19°C° 0 mm 0 mps 756 mmHg 96%
    06:00 +21°C° 0 mm 0 mps 756 mmHg 89%
    07:00 +24°C° 0 mm 1 mps 756 mmHg 83%
    08:00 +26°C° 0 mm 1 mps 756 mmHg 77%
    09:00 +28°C° 0 mm 1 mps 756 mmHg 69%
    10:00 +30°C° 0 mm 1 mps 756 mmHg 61%
    11:00 +32°C° 0 mm 1 mps 756 mmHg 54%
    12:00 +33°C° 0 mm 1 mps 756 mmHg 50%
    13:00 +34°C° 0 mm 1 mps 755 mmHg 46%
    14:00 +35°C° 0 mm 1 mps 755 mmHg 42%
    15:00 +35°C° 0 mm 1 mps 755 mmHg 42%
    16:00 +34°C° 0 mm 1 mps 754 mmHg 43%
    17:00 +34°C° 0 mm 1 mps 754 mmHg 44%
    18:00 +32°C° 0 mm 1 mps 754 mmHg 50%
    19:00 +30°C° 0 mm 1 mps 754 mmHg 56%
    20:00 +28°C° 0 mm 1 mps 755 mmHg 62%
    21:00 +28°C° 0 mm 1 mps 755 mmHg 65%
    22:00 +27°C° 0 mm 1 mps 756 mmHg 68%
    23:00 +26°C° 0 mm 1 mps 756 mmHg 70%

    Tomorrow, 17 January, Thursday

    Time Temperature Precipitation Wind Pressure Humidity
    00:00 +26°C° 0 mm 2 mps 756 mmHg 73%
    01:00 +26°C° 0 mm 2 mps 756 mmHg 75%
    02:00 +25°C° 0 mm 2 mps 756 mmHg 77%
    03:00 +25°C° 0 mm 2 mps 756 mmHg 78%
    04:00 +25°C° 0 mm 2 mps 756 mmHg 79%
    05:00 +24°C° 0 mm 3 mps 757 mmHg 79%
    06:00 +26°C° 0 mm 3 mps 757 mmHg 75%
    07:00 +27°C° 0 mm 4 mps 758 mmHg 71%
    08:00 +28°C° 0 mm 4 mps 758 mmHg 67%
    09:00 +28°C° 0.1 mm 5 mps 759 mmHg 66%
    10:00 +29°C° 0.1 mm 6 mps 759 mmHg 65%
    11:00 +29°C° 0.1 mm 6 mps 759 mmHg 64%
    12:00 +29°C° 0.3 mm 6 mps 759 mmHg 64%
    13:00 +29°C° 0.3 mm 6 mps 759 mmHg 63%
    14:00 +29°C° 0.3 mm 6 mps 759 mmHg 63%
    15:00 +28°C° 0.2 mm 5 mps 759 mmHg 64%
    16:00 +28°C° 0.2 mm 5 mps 759 mmHg 64%
    17:00 +28°C° 0.2 mm 5 mps 759 mmHg 65%
    18:00 +26°C° 0.1 mm 4 mps 759 mmHg 71%
    19:00 +25°C° 0.1 mm 3 mps 760 mmHg 77%
    20:00 +24°C° 0.1 mm 2 mps 760 mmHg 83%
    21:00 +24°C° 0 mm 3 mps 761 mmHg 83%
    22:00 +22°C° 0 mm 4 mps 761 mmHg 82%
    23:00 +22°C° 0 mm 5 mps 762 mmHg 82%

    Day after tomorrow, 18 January, Friday

    Time Temperature Precipitation Wind Pressure Humidity
    00:00 +22°C° 0 mm 5 mps 761 mmHg 79%
    01:00 +21°C° 0 mm 5 mps 761 mmHg 76%
    02:00 +20°C° 0 mm 5 mps 761 mmHg 72%
    03:00 +20°C° 0 mm 5 mps 761 mmHg 70%
    04:00 +20°C° 0 mm 5 mps 761 mmHg 68%
    05:00 +20°C° 0 mm 5 mps 762 mmHg 67%
    06:00 +20°C° 0 mm 5 mps 762 mmHg 67%
    07:00 +20°C° 0 mm 5 mps 762 mmHg 68%
    08:00 +20°C° 0 mm 6 mps 763 mmHg 69%
    09:00 +22°C° 0 mm 5 mps 763 mmHg 65%
    10:00 +25°C° 0 mm 5 mps 762 mmHg 61%
    11:00 +27°C° 0 mm 5 mps 762 mmHg 58%
    12:00 +28°C° 0 mm 5 mps 762 mmHg 56%
    13:00 +29°C° 0 mm 5 mps 761 mmHg 53%
    14:00 +30°C° 0 mm 4 mps 761 mmHg 51%
    15:00 +30°C° 0 mm 4 mps 761 mmHg 53%
    16:00 +29°C° 0 mm 4 mps 760 mmHg 54%
    17:00 +29°C° 0 mm 4 mps 760 mmHg 56%
    18:00 +28°C° 0.1 mm 3 mps 760 mmHg 62%
    19:00 +26°C° 0.1 mm 3 mps 760 mmHg 69%
    20:00 +25°C° 0.1 mm 3 mps 761 mmHg 75%
    21:00 +24°C° 0 mm 2 mps 761 mmHg 79%
    22:00 +23°C° 0 mm 2 mps 761 mmHg 82%
    23:00 +21°C° 0 mm 2 mps 762 mmHg 86%

    19 January, Saturday

    Time Temperature Precipitation Wind Pressure Humidity
    00:00 +21°C° 0 mm 2 mps 762 mmHg 87%
    01:00 +20°C° 0 mm 2 mps 761 mmHg 88%
    02:00 +20°C° 0 mm 2 mps 761 mmHg 89%
    03:00 +19°C° 0 mm 2 mps 761 mmHg 91%
    04:00 +19°C° 0 mm 2 mps 762 mmHg 92%
    05:00 +19°C° 0 mm 2 mps 762 mmHg 94%
    06:00 +20°C° 0 mm 2 mps 762 mmHg 87%
    07:00 +21°C° 0 mm 3 mps 762 mmHg 81%
    08:00 +24°C° 0 mm 3 mps 763 mmHg 75%
    09:00 +25°C° 0 mm 3 mps 762 mmHg 67%
    10:00 +27°C° 0 mm 3 mps 762 mmHg 60%
    11:00 +29°C° 0 mm 4 mps 762 mmHg 53%
    12:00 +30°C° 0 mm 4 mps 761 mmHg 50%
    13:00 +32°C° 0 mm 4 mps 761 mmHg 47%
    14:00 +32°C° 0 mm 4 mps 760 mmHg 44%
    15:00 +32°C° 0 mm 4 mps 760 mmHg 45%
    16:00 +32°C° 0 mm 4 mps 759 mmHg 47%
    17:00 +30°C° 0 mm 4 mps 759 mmHg 49%
    18:00 +29°C° 0 mm 3 mps 759 mmHg 55%
    19:00 +27°C° 0 mm 3 mps 759 mmHg 62%
    20:00 +25°C° 0 mm 3 mps 759 mmHg 69%
    21:00 +24°C° 0 mm 2 mps 760 mmHg 72%
    22:00 +24°C° 0 mm 2 mps 760 mmHg 76%
    23:00 +23°C° 0 mm 2 mps 760 mmHg 80%

    20 January, Sunday

    Time Temperature Precipitation Wind Pressure Humidity
    00:00 +23°C° 0 mm 2 mps 760 mmHg 82%
    01:00 +21°C° 0 mm 2 mps 759 mmHg 84%
    02:00 +21°C° 0 mm 2 mps 759 mmHg 87%
    03:00 +21°C° 0 mm 2 mps 759 mmHg 89%
    04:00 +20°C° 0 mm 2 mps 759 mmHg 91%
    05:00 +20°C° 0 mm 2 mps 759 mmHg 93%
    06:00 +21°C° 0 mm 2 mps 759 mmHg 87%
    07:00 +24°C° 0 mm 3 mps 759 mmHg 81%
    08:00 +26°C° 0 mm 3 mps 760 mmHg 75%
    09:00 +27°C° 0 mm 3 mps 759 mmHg 69%
    10:00 +29°C° 0 mm 3 mps 759 mmHg 64%
    11:00 +30°C° 0 mm 3 mps 759 mmHg 58%
    12:00 +31°C° 0 mm 3 mps 758 mmHg 54%
    13:00 +33°C° 0 mm 3 mps 757 mmHg 51%
    14:00 +34°C° 0 mm 3 mps 756 mmHg 48%
    15:00 +34°C° 0 mm 3 mps 756 mmHg 50%
    16:00 +33°C° 0 mm 3 mps 755 mmHg 52%
    17:00 +33°C° 0 mm 3 mps 755 mmHg 54%
    18:00 +30°C° 0 mm 3 mps 755 mmHg 61%
    19:00 +28°C° 0 mm 3 mps 755 mmHg 68%
    20:00 +27°C° 0 mm 2 mps 755 mmHg 76%
    21:00 +26°C° 0 mm 2 mps 755 mmHg 79%
    22:00 +26°C° 0 mm 2 mps 756 mmHg 82%
    23:00 +25°C° 0 mm 2 mps 756 mmHg 85%

    21 January, Monday

    Time Temperature Precipitation Wind Pressure Humidity
    00:00 +25°C° 0 mm 2 mps 756 mmHg 88%
    01:00 +24°C° 0 mm 2 mps 756 mmHg 90%
    02:00 +24°C° 0 mm 2 mps 755 mmHg 92%
    03:00 +23°C° 0 mm 2 mps 755 mmHg 93%
    04:00 +23°C° 0 mm 2 mps 755 mmHg 93%
    05:00 +23°C° 0 mm 2 mps 755 mmHg 93%
    06:00 +24°C° 0 mm 2 mps 755 mmHg 86%
    07:00 +26°C° 0 mm 2 mps 756 mmHg 80%
    08:00 +28°C° 0 mm 2 mps 756 mmHg 73%
    09:00 +29°C° 0 mm 2 mps 756 mmHg 66%
    10:00 +31°C° 0 mm 2 mps 756 mmHg 59%
    11:00 +34°C° 0 mm 2 mps 756 mmHg 52%
    12:00 +35°C° 0 mm 2 mps 755 mmHg 48%
    13:00 +35°C° 0 mm 1 mps 755 mmHg 44%
    14:00 +36°C° 0 mm 1 mps 754 mmHg 40%
    15:00 +37°C° 0 mm 2 mps 754 mmHg 41%
    16:00 +37°C° 0 mm 2 mps 753 mmHg 41%
    17:00 +36°C° 0 mm 2 mps 753 mmHg 41%
    18:00 +34°C° 0 mm 2 mps 753 mmHg 48%
    19:00 +32°C° 0 mm 2 mps 754 mmHg 55%
    20:00 +30°C° 0 mm 2 mps 754 mmHg 61%
    21:00 +29°C° 0 mm 2 mps 754 mmHg 64%
    22:00 +28°C° 0 mm 2 mps 754 mmHg 67%
    23:00 +28°C° 0 mm 2 mps 755 mmHg 70%
    Show more